Orbital Elements
Epoch 2021 Nov. 2.0 TT = JDT 2459520.5
T 2021 Nov. 14.00555 TT Rudenko
q 5.3321146 (2000.0) P Q
z +0.0014418 Peri. 227.96947 -0.49516866 +0.61291152
+/-0.0000016 Node 321.88672 +0.71087382 -0.12161992
e 0.9923122 Incl. 93.95349 -0.49946613 -0.78073559
H 12.0
From 238 observations 2020 Jan. 4-2021 Jan. 22, mean residual 0".5.
|